This is the latest recevied weather packets stored in our database for station/object KP4OZ. If no packets are shown the sender has not sent any weather packets the latest 10 day(s).
| Time | Temp. | Humidity | Pressure | Rain* | Wind** | Luminosity | Snow |
|---|---|---|---|---|---|---|---|
| 1777840879 | 32.22° C | 50% | 1014.9 hPa | 0 mm | - | - | - |
| 1777840576 | 31.67° C | 53% | 1014.9 hPa | 0 mm | - | - | - |
| 1777840273 | 31.67° C | 61% | 1014.9 hPa | 0 mm | - | - | - |
| 1777839971 | 31.11° C | 61% | 1014.8 hPa | 0 mm | - | - | - |
| 1777839668 | 31.11° C | 62% | 1015.1 hPa | 0 mm | - | - | - |
| 1777839366 | 31.11° C | 61% | 1015.1 hPa | 0 mm | - | - | - |
| 1777839063 | 31.11° C | 61% | 1015.1 hPa | 0 mm | - | - | - |
| 1777838760 | 31.67° C | 59% | 1015.2 hPa | 0 mm | - | - | - |
| 1777838456 | 31.11° C | 60% | 1015 hPa | 0 mm | - | - | - |
| 1777838153 | 31.67° C | 59% | 1015.2 hPa | 0 mm | - | - | - |
| 1777837850 | 31.11° C | 60% | 1015.3 hPa | 0 mm | - | - | - |
| 1777837547 | 31.67° C | 59% | 1015.3 hPa | 0 mm | - | - | - |
| 1777837247 | 31.67° C | 63% | 1015.1 hPa | 0 mm | - | - | - |
| 1777836944 | 31.11° C | 62% | 1015.3 hPa | 0 mm | - | - | - |
| 1777836645 | 31.11° C | 63% | 1015.4 hPa | 0 mm | - | - | - |
| 1777836341 | 31.11° C | 65% | 1015.5 hPa | 0 mm | - | - | - |
| 1777836037 | 31.67° C | 62% | 1015.3 hPa | 0 mm | - | - | - |
| 1777835734 | 31.11° C | 63% | 1015.5 hPa | 0 mm | - | - | - |
| 1777835431 | 30.56° C | 65% | 1015.7 hPa | 0 mm | - | - | - |
| 1777835127 | 31.67° C | 62% | 1015.6 hPa | 0 mm | - | - | - |
| 1777834825 | 31.11° C | 62% | 1015.6 hPa | 0 mm | - | - | - |
| 1777834521 | 30.56° C | 63% | 1015.5 hPa | 0 mm | - | - | - |
| 1777834221 | 31.11° C | 60% | 1015.7 hPa | 0 mm | - | - | - |
| 1777833918 | 31.67° C | 58% | 1015.5 hPa | 0 mm | - | - | - |
| 1777833614 | 31.11° C | 57% | 1015.7 hPa | 0 mm | - | - | - |
* Rain latest hour (hover to see other rain measurements)
** Current wind speed in m/s (hover to see current wind gust speed)